Flag for Germany Weather past 2 weeks in Berlin, Berlin, Germany

Now
79 °F

Warm.


Feels Like: 81 °F
Forecast: 69 / 84 °F
Wind: 3 mph from Northeast

Location: Berlin-Tempelhof

Current Time: Jul 28, 2014 at 3:04:54 PM

Latest Report: Jul 28, 2014 at 2:00 PM


Visibility: N/A

Pressure: 29.90 "Hg

Humidity: 55%

Dew point: 62 °F

Location of BerlinLocation

Historic Weather in Berlin — Graph

°F

Berlin temperature yesterday

Maximum temperature yesterday: 88 °F (at 3:00 PM)
Minimum temperature yesterday: 67 °F (at 6:00 AM)
Average temperature yesterday: 76 °F

Past Weeks' High & Low Weather Summary

 TemperatureHumidityPressure
High88 °F (Jul 27, 3:00 PM)97% (Jul 26, 8:00 AM)30.18 "Hg (Jul 26, 8:00 AM)
Low59 °F (Jul 14, 12:00 AM)26% (Jul 23, 5:00 PM)29.72 "Hg (Jul 13, 7:00 PM)
Average71 °F68%29.98 "Hg
* Reported Jul 13 2:00 PM — Jul 28 2:00 PM, Berlin, Weather by CustomWeather, © 2014

Note: Actual official high and low records may vary slightly from our data, if they occured in-between our weather recording intervals... More about our weather records

Advertising

Berlin weather history for previous 24 hours

 ConditionsComfort  
Time TempWeatherWind HumidityBarometerVisibility
2:00 PM
Jul 28
79 °FWarm.3 mph55%29.90 "HgN/A
1:00 PM79 °FWarm.3 mph66%29.90 "HgN/A
12:00 PM78 °FWarm.5 mph65%29.90 "HgN/A
11:00 AM74 °FMild.3 mph75%29.90 "HgN/A
10:00 AM71 °FMild.6 mph89%29.91 "HgN/A
9:00 AM72 °FMild.5 mph82%29.93 "HgN/A
8:00 AM72 °FMild.1 mph79%29.91 "HgN/A
7:00 AM70 °FMild.1 mph86%29.90 "HgN/A
6:00 AM70 °FMild.2 mph83%29.91 "HgN/A
5:00 AM70 °FMild.2 mph82%29.90 "HgN/A
4:00 AM71 °FMild.2 mph80%29.90 "HgN/A
3:00 AM71 °FMild.2 mph79%29.91 "HgN/A
2:00 AM71 °FMild.2 mph78%29.92 "HgN/A
1:00 AM71 °FMild.2 mph73%29.93 "HgN/A
12:00 AM71 °FMild.3 mph75%29.93 "HgN/A
11:00 PM
Jul 27
71 °FMild.3 mph79%29.93 "HgN/A
10:00 PM74 °FMild.2 mph74%29.93 "HgN/A
9:00 PM75 °FMild.3 mph74%29.92 "HgN/A
8:00 PM76 °FMild.5 mph69%29.91 "HgN/A
7:00 PM80 °FWarm.3 mph50%29.89 "HgN/A
6:00 PM81 °FWarm.2 mph47%29.88 "HgN/A
5:00 PM82 °FWarm.3 mph47%29.89 "HgN/A
4:00 PM85 °FPleasantly warm.5 mph36%29.89 "HgN/A
3:00 PM88 °FPleasantly warm.2 mph32%29.90 "HgN/A
Weather by CustomWeather, © 2014

See weather overviewHow to use our weather pages